TimeCST,TemperatureF,Dew PointF,Humidity,Sea Level PressureIn,VisibilityMPH,Wind Direction,Wind SpeedMPH,Gust SpeedMPH,PrecipitationIn,Events,Conditions,WindDirDegrees,DateUTC
12:15 AM,53.6,41.0,62,30.06,10.0,NNW,4.6,-,N/A,,Mostly Cloudy,340,2013-02-11 06:15:00
12:35 AM,53.6,42.8,67,30.05,10.0,Calm,Calm,-,N/A,,Scattered Clouds,0,2013-02-11 06:35:00
12:55 AM,53.6,41.0,62,30.05,10.0,Calm,Calm,-,N/A,,Scattered Clouds,0,2013-02-11 06:55:00
1:15 AM,53.6,42.8,67,30.05,10.0,Calm,Calm,-,N/A,,Mostly Cloudy,0,2013-02-11 07:15:00
1:35 AM,53.6,42.8,67,30.04,10.0,Calm,Calm,-,N/A,,Partly Cloudy,0,2013-02-11 07:35:00
1:55 AM,53.6,41.0,62,30.04,10.0,Calm,Calm,-,N/A,,Scattered Clouds,0,2013-02-11 07:55:00
2:15 AM,53.6,42.8,67,30.04,10.0,Calm,Calm,-,N/A,,Partly Cloudy,0,2013-02-11 08:15:00
2:35 AM,53.6,41.0,62,30.05,10.0,Calm,Calm,-,N/A,,Mostly Cloudy,0,2013-02-11 08:35:00
2:55 AM,53.6,42.8,67,30.03,10.0,NNE,3.5,-,N/A,,Mostly Cloudy,20,2013-02-11 08:55:00
3:15 AM,51.8,41.0,67,30.03,10.0,Calm,Calm,-,N/A,,Scattered Clouds,0,2013-02-11 09:15:00
3:35 AM,51.8,41.0,67,30.04,10.0,Calm,Calm,-,N/A,,Partly Cloudy,0,2013-02-11 09:35:00
3:55 AM,51.8,42.8,71,30.03,10.0,Calm,Calm,-,N/A,,Scattered Clouds,0,2013-02-11 09:55:00
4:15 AM,53.6,37.4,54,30.02,10.0,NE,3.5,-,N/A,,Partly Cloudy,40,2013-02-11 10:15:00
4:35 AM,53.6,37.4,54,30.03,10.0,Calm,Calm,-,N/A,,Clear,0,2013-02-11 10:35:00
4:55 AM,53.6,35.6,51,30.04,10.0,Calm,Calm,-,N/A,,Clear,0,2013-02-11 10:55:00
5:15 AM,51.8,37.4,58,30.05,10.0,Calm,Calm,-,N/A,,Scattered Clouds,0,2013-02-11 11:15:00
5:35 AM,51.8,35.6,54,30.05,10.0,Calm,Calm,-,N/A,,Scattered Clouds,0,2013-02-11 11:35:00
5:55 AM,51.8,35.6,54,30.06,10.0,Calm,Calm,-,N/A,,Mostly Cloudy,0,2013-02-11 11:55:00
6:15 AM,53.6,37.4,54,30.08,10.0,Calm,Calm,-,N/A,,Overcast,0,2013-02-11 12:15:00
6:35 AM,53.6,39.2,58,30.08,10.0,North,4.6,-,N/A,,Overcast,350,2013-02-11 12:35:00
6:55 AM,53.6,39.2,58,30.07,10.0,Calm,Calm,-,N/A,,Overcast,0,2013-02-11 12:55:00
7:15 AM,53.6,39.2,58,30.07,10.0,Calm,Calm,-,N/A,,Overcast,0,2013-02-11 13:15:00
7:35 AM,53.6,37.4,54,30.07,10.0,Calm,Calm,-,N/A,,Overcast,0,2013-02-11 13:35:00
7:55 AM,53.6,41.0,62,30.08,10.0,Calm,Calm,-,N/A,,Mostly Cloudy,0,2013-02-11 13:55:00
8:15 AM,53.6,41.0,62,30.07,10.0,Calm,Calm,-,N/A,,Mostly Cloudy,0,2013-02-11 14:15:00
8:35 AM,53.6,42.8,67,30.07,10.0,Calm,Calm,-,N/A,,Mostly Cloudy,0,2013-02-11 14:35:00
8:55 AM,55.4,42.8,63,30.09,10.0,Calm,Calm,-,N/A,,Overcast,0,2013-02-11 14:55:00
9:15 AM,55.4,39.2,54,30.11,10.0,Calm,Calm,-,N/A,Rain,Light Rain,0,2013-02-11 15:15:00
9:35 AM,55.4,41.0,58,30.10,10.0,Calm,Calm,-,N/A,,Overcast,0,2013-02-11 15:35:00
9:55 AM,57.2,37.4,48,30.10,10.0,ENE,8.1,-,N/A,,Overcast,70,2013-02-11 15:55:00
10:15 AM,57.2,35.6,44,30.11,10.0,East,6.9,-,N/A,Rain,Light Rain,90,2013-02-11 16:15:00
10:35 AM,57.2,37.4,48,30.12,10.0,ESE,5.8,-,N/A,,Overcast,120,2013-02-11 16:35:00
10:55 AM,53.6,42.8,67,30.12,4.0,East,9.2,-,N/A,Rain,Light Rain,90,2013-02-11 16:55:00
11:15 AM,51.8,41.0,67,30.11,10.0,ENE,9.2,-,N/A,,Mostly Cloudy,60,2013-02-11 17:15:00
11:35 AM,51.8,42.8,71,30.13,3.0,ESE,3.5,-,0.02,Rain,Light Rain,120,2013-02-11 17:35:00
11:55 AM,51.8,48.2,88,30.12,4.0,East,4.6,-,0.04,Rain-Thunderstorm,Light Thunderstorms and Rain,100,2013-02-11 17:55:00
12:15 PM,51.8,46.4,82,30.11,9.0,ESE,13.8,-,N/A,,Mostly Cloudy,120,2013-02-11 18:15:00
12:55 PM,51.8,46.4,82,30.09,10.0,ENE,8.1,-,N/A,,Mostly Cloudy,70,2013-02-11 18:55:00
1:15 PM,51.8,46.4,82,30.10,7.0,East,10.4,-,N/A,Rain,Light Rain,80,2013-02-11 19:15:00
1:35 PM,50.0,46.4,87,30.09,2.0,East,8.1,-,0.06,Rain,Rain,80,2013-02-11 19:35:00
1:55 PM,50.0,46.4,87,30.08,5.0,NE,9.2,-,0.07,,Overcast,50,2013-02-11 19:55:00
2:15 PM,50.0,46.4,87,30.06,10.0,NE,10.4,17.3,N/A,,Mostly Cloudy,50,2013-02-11 20:15:00
2:55 PM,51.8,44.6,76,30.05,10.0,ENE,11.5,-,N/A,,Overcast,60,2013-02-11 20:55:00
3:15 PM,51.8,44.6,76,30.05,10.0,ENE,10.4,-,N/A,,Overcast,60,2013-02-11 21:15:00
3:35 PM,51.8,44.6,76,30.05,10.0,ENE,12.7,-,N/A,,Overcast,60,2013-02-11 21:35:00
3:55 PM,51.8,44.6,76,30.05,10.0,ENE,8.1,-,N/A,,Overcast,70,2013-02-11 21:55:00
4:55 PM,51.8,46.4,82,30.05,10.0,NE,6.9,-,N/A,,Overcast,50,2013-02-11 22:55:00
5:15 PM,51.8,46.4,82,30.05,10.0,Calm,Calm,-,N/A,,Overcast,0,2013-02-11 23:15:00
5:35 PM,51.8,46.4,82,30.05,10.0,ENE,9.2,-,N/A,,Overcast,70,2013-02-11 23:35:00
5:55 PM,51.8,46.4,82,30.06,10.0,ENE,5.8,-,N/A,,Overcast,70,2013-02-11 23:55:00
6:15 PM,51.8,46.4,82,30.06,10.0,NE,6.9,-,N/A,,Overcast,50,2013-02-12 00:15:00
6:35 PM,51.8,46.4,82,30.05,10.0,ENE,6.9,-,N/A,,Overcast,70,2013-02-12 00:35:00
6:55 PM,50.0,46.4,87,30.05,10.0,Calm,Calm,-,N/A,,Overcast,0,2013-02-12 00:55:00
7:15 PM,50.0,46.4,87,30.05,10.0,East,5.8,-,N/A,,Overcast,80,2013-02-12 01:15:00
7:35 PM,50.0,46.4,87,30.06,10.0,East,5.8,-,N/A,,Overcast,80,2013-02-12 01:35:00
7:55 PM,50.0,46.4,87,30.06,10.0,East,5.8,-,N/A,,Overcast,80,2013-02-12 01:55:00
8:15 PM,50.0,46.4,87,30.05,10.0,East,10.4,-,N/A,,Overcast,90,2013-02-12 02:15:00
8:35 PM,50.0,46.4,87,30.04,10.0,East,9.2,-,N/A,,Overcast,90,2013-02-12 02:35:00
8:55 PM,50.0,44.6,82,30.05,10.0,East,10.4,-,N/A,,Overcast,90,2013-02-12 02:55:00
9:15 PM,50.0,44.6,82,30.05,10.0,East,10.4,-,N/A,,Overcast,90,2013-02-12 03:15:00
9:35 PM,50.0,44.6,82,30.04,10.0,East,4.6,-,N/A,,Overcast,80,2013-02-12 03:35:00
9:55 PM,50.0,44.6,82,30.05,10.0,East,8.1,-,N/A,,Overcast,90,2013-02-12 03:55:00
10:15 PM,50.0,44.6,82,30.04,10.0,Calm,Calm,-,N/A,,Overcast,0,2013-02-12 04:15:00
10:35 PM,48.2,44.6,87,30.04,10.0,East,3.5,-,N/A,,Overcast,80,2013-02-12 04:35:00
10:55 PM,48.2,44.6,87,30.03,10.0,East,5.8,-,N/A,,Overcast,80,2013-02-12 04:55:00
11:15 PM,48.2,44.6,87,30.04,10.0,East,4.6,-,N/A,,Overcast,90,2013-02-12 05:15:00
11:35 PM,48.2,44.6,87,30.04,10.0,East,9.2,-,N/A,,Overcast,90,2013-02-12 05:35:00
11:55 PM,48.2,44.6,87,30.03,10.0,East,6.9,-,N/A,,Overcast,80,2013-02-12 05:55:00